INTELSAT 35E (IS-35E) (42818 NORAD) Tracking and Keplerian Element Data

This shows tracking and keplerian element data for the satellite.

Feedback or suggestion? Click here.




ElementValue
Catalog42818
NameINTELSAT 35E (IS-35E)
Epoch Orbit2781
Epoch Day35.05249333
Epoch Year2025
RAAN107.4184
Inclination0.0188
Eccentricity0.0002489
Argument of Perigee212.623
Mean Anonmoly158.8066
Mean Motion1.00271168
Decay Rate-2.34E-06
L11 42818U 17041A 25035.05249333 -.00000234 00000+0 00000+0 0 9998
L22 42818 0.0188 107.4184 0002489 212.6230 158.8066 1.00271168 27814



Live tracking and technical data element details for INTELSAT 35E (IS-35E) (NORAD 42818). INTELSAT 35E (IS-35E) can be tracked NOW for your location showing map with azimuth and elevation plus other details from your city location.







IsCatalogInMostPopularTable: catalog: 42818, numindb: 729
Update: records affected: 1



GetName: 42818 INTELSAT 35E (IS-35E)

Hit Count: updated at: Wed, 30 Apr 2025 16:02:15 GMT